Search for airport 
image banner adimage banner adimage banner ad
image banner ad

CA247 - Tuktoyaktuk (Imperial)

Located in , Canada

ICAO - , IATA -

Data provided by Airmate  

General information

Coordinates: N69°26'0" W132°57'0"
Elevation is feet MSL.
 
View others Airports in Northwest Territories

Operational data

Special qualification required
Current time UTC:
Current local time:
Weather at : CYUB - James Gruben ( 3 km )
METAR: CYUB 062300Z 18017KT 15SM BKN100 BKN160 M11/M14 A2930 RMK AC5AS2 SLP925
TAF: TAF CYUB 061840Z 0619/0706 17012KT P6SM SCT200 FM062200 18013G23KT P6SM SCT140 BKN200 TEMPO 0622/0704 BKN140 FM070400 16013G23KT P6SM SCT080 BKN120 TEMPO 0704/0706 BKN080 RMK NXT FCST BY 070100Z
View NOTAMs / SUP AIP / TFR affecting this airport [VIEW]
Communications frequencies: [VIEW]

Runways:

Airport contact information

Address: Canada

Satellite view of CA247